GLOBAL-17 (49949 NORAD) Tracking and Keplerian Element Data

This shows tracking and keplerian element data for the satellite.

Feedback or suggestion? Click here.




ElementValue
Catalog49949
NameGLOBAL-17
Epoch Orbit2508
Epoch Day140.065344
Epoch Year2022
RAAN136.8459
Inclination42.0052
Eccentricity0.0003146
Argument of Perigee268.1189
Mean Anonmoly91.9293
Mean Motion15.44786762
Decay Rate0.00029313
L11 49949U 21120A 22140.06534400 .00029313 00000+0 61477-3 0 9997
L22 49949 42.0052 136.8459 0003146 268.1189 91.9293 15.44786762 25083

Live tracking and technical data element details for GLOBAL-17 (NORAD 49949). GLOBAL-17 can be tracked NOW for your location showing map with azimuth and elevation plus other details from your city location.

Track the satellite on the map from your city or location and see movement details for azimuth, elevation, latitude, longitude, range, height, and movement on the map or in text.







IsCatalogInMostPopularTable: catalog: 49949, numindb: 22
Update: records affected: 1



GetName: 49949 GLOBAL-17

Hit Count: updated at: Mon, 23 May 2022 20:21:33 GMT